Voltar ao catálogo

ZHUHAI-1 03D

AtivoCiênciaPO
NORAD 44538·PAYLOAD·🇨🇳 China

Lançado Sep 19, 2019 de Jiuquan Satellite Launch Center

Loading…

Próximas Passagens (próximas 24 horas)

TLE

AtualizadoSource: Space-Track

Época: Sep 14, 2026, 21:20 UTC

1 44538U 19060E   26257.88924003  .00036637  00000-0  54552-3 0  9995
2 44538  97.5475  52.2339 0005922 334.2684  25.8274 15.55023246389994

Acompanhe ZHUHAI-1 03D em tempo real com AllMySat

Download on the App Store